GSAT0221 (GALILEO 25) (43564 NORAD) Tracking and Keplerian Element Data

This shows tracking and keplerian element data for the satellite.

Feedback or suggestion? Click here.




ElementValue
Catalog43564
NameGSAT0221 (GALILEO 25)
Epoch Orbit514
Epoch Day142.92049433
Epoch Year2019
RAAN51.7967
Inclination56.5444
Eccentricity0.000428
Argument of Perigee294.116
Mean Anonmoly65.8532
Mean Motion1.70475687
Decay Rate-8.6E-07
L11 43564U 18060A 19142.92049433 -.00000086 00000-0 00000-0 0 9993
L22 43564 56.5444 51.7967 0004280 294.1160 65.8532 1.70475687 5148

Live tracking and technical data element details for GSAT0221 (GALILEO 25) (NORAD 43564). GSAT0221 (GALILEO 25) can be tracked NOW for your location showing map with azimuth and elevation plus other details from your city location.

Track the satellite on the map from your city or location and see movement details for azimuth, elevation, latitude, longitude, range, height, and movement on the map or in text.







IsCatalogInMostPopularTable: catalog: 43564, numindb: 144
Update: records affected: 1



GetName: 43564 GSAT0221 (GALILEO 25)

Hit Count: updated at: Fri, 24 May 2019 21:23:17 GMT